Skip Page Navigation
NASA JPL Caltech
NASA Logo - Jet Propulsion Laboratory + View the NASA Portal
+ Center for Near-Earth Object Studies
JPL Home Earth Solar System Stars & Galaxies Technology
JPL Solar System Dynamics
BODIES ORBITS EPHEMERIDES TOOLS PHYSICAL DATA DISCOVERY FAQ SITE MAP
JPL Small-Body Database Browser
Search: [ help ]  
268790 (2006 TH106)
Classification: Main-belt Asteroid          SPK-ID: 2268790
Ephemeris | Orbit Diagram | Orbital Elements | Mission Design | Physical Parameters | Discovery Circumstances ]

[ show orbit diagram ]
Orbital Elements at Epoch 2459000.5 (2020-May-31.0) TDB
Reference: JPL 9 (heliocentric ecliptic J2000)
 Element Value Uncertainty (1-sigma)   Units 
e .164670584756109 6.3464e-08  
a 2.272355061083371 1.7149e-08 au
q 1.898165024401268 1.4739e-07 au
i 2.961656220806475 7.9314e-06 deg
node 346.6486974454069 0.00013061 deg
peri 67.34900981162855 0.00013343 deg
M 335.688631714349 2.8421e-05 deg
tp 2459084.992783261360
(2020-Aug-23.49278326)
9.9353e-05 TDB
period 1251.159606349367
3.43
1.4163e-05
3.878e-08
d
yr
n .2877330743200766 3.2572e-09 deg/d
Q 2.646545097765473 1.9973e-08 au
  Orbit Determination Parameters
   # obs. used (total)      132  
   data-arc span      7721 days (21.14 yr)  
   first obs. used      1999-09-07  
   last obs. used      2020-10-27  
   planetary ephem.      DE431  
   SB-pert. ephem.      SB431-N16  
   condition code      0  
   norm. resid. RMS      .59185  
   source      ORB  
   producer      Otto Matic  
   solution date      2020-Nov-11 22:10:56  

Additional Information
 Earth MOID = .911721 au 
 Jupiter MOID = 2.70264 au 
 T_jup = 3.592 
[ show covariance matrix ]

Ephemeris | Orbit Diagram | Orbital Elements | Mission Design | Physical Parameters | Discovery Circumstances ]

Physical Parameter Table
Parameter Symbol Value Units Sigma Reference Notes
absolute magnitude H 17.5   n/a MPO440318  

268790 (2006 TH106)          Discovered 2006-Oct-15 by Spacewatch at Kitt Peak
Reference: 20110319/Numbers.arcLast Updated: 2011-03-23

Alternate Designations
 2006 TH106 = 2004 CV130 
Ephemeris | Orbit Diagram | Orbital Elements | Mission Design | Physical Parameters | Discovery Circumstances ]
ABOUT SSD CREDITS/AWARDS PRIVACY/COPYRIGHT GLOSSARY LINKS
FirstGov 2020-Nov-24 01:39 UT
(server date/time)  
NASA Home Page
Site Manager:   Ryan S. Park
Webmaster  Alan B. Chamberlin